Hourly Weather Al Khafji

Today, 11 May, Tuesday

Time Temperature Precipitation Wind Pressure Humidity
00:00 +34°C° 0 mm 3 mps 753 mmHg 15%
01:00 +34°C° 0 mm 3 mps 753 mmHg 15%
02:00 +33°C° 0 mm 3 mps 753 mmHg 15%
03:00 +33°C° 0 mm 3 mps 753 mmHg 16%
04:00 +33°C° 0 mm 3 mps 753 mmHg 15%
05:00 +34°C° 0 mm 3 mps 754 mmHg 15%
06:00 +34°C° 0 mm 3 mps 754 mmHg 15%
07:00 +36°C° 0 mm 2 mps 754 mmHg 13%
08:00 +39°C° 0 mm 2 mps 755 mmHg 11%
09:00 +41°C° 0 mm 1 mps 755 mmHg 9%
10:00 +42°C° 0 mm 2 mps 755 mmHg 9%
11:00 +43°C° 0 mm 2 mps 755 mmHg 8%
12:00 +45°C° 0 mm 3 mps 754 mmHg 8%
13:00 +45°C° 0 mm 3 mps 754 mmHg 8%
14:00 +45°C° 0 mm 4 mps 754 mmHg 8%
15:00 +45°C° 0 mm 4 mps 753 mmHg 9%
16:00 +43°C° 0 mm 4 mps 753 mmHg 11%
17:00 +40°C° 0 mm 3 mps 753 mmHg 13%
18:00 +38°C° 0 mm 3 mps 752 mmHg 15%
19:00 +37°C° 0 mm 3 mps 753 mmHg 16%
20:00 +36°C° 0 mm 3 mps 753 mmHg 16%
21:00 +35°C° 0 mm 3 mps 753 mmHg 17%
22:00 +35°C° 0 mm 3 mps 753 mmHg 17%
23:00 +34°C° 0 mm 3 mps 753 mmHg 16%

Tomorrow, 12 May, Wednesday

Time Temperature Precipitation Wind Pressure Humidity
00:00 +34°C° 0 mm 3 mps 752 mmHg 16%
01:00 +34°C° 0 mm 3 mps 752 mmHg 16%
02:00 +33°C° 0 mm 3 mps 752 mmHg 16%
03:00 +33°C° 0 mm 4 mps 752 mmHg 16%
04:00 +33°C° 0 mm 3 mps 753 mmHg 16%
05:00 +33°C° 0 mm 3 mps 753 mmHg 16%
06:00 +32°C° 0 mm 2 mps 754 mmHg 15%
07:00 +35°C° 0 mm 2 mps 754 mmHg 14%
08:00 +36°C° 0 mm 1 mps 754 mmHg 12%
09:00 +40°C° 0 mm 1 mps 754 mmHg 11%
10:00 +41°C° 0 mm 1 mps 754 mmHg 10%
11:00 +43°C° 0 mm 1 mps 754 mmHg 9%
12:00 +45°C° 0 mm 2 mps 753 mmHg 8%
13:00 +45°C° 0 mm 3 mps 753 mmHg 8%
14:00 +45°C° 0 mm 3 mps 752 mmHg 8%
15:00 +45°C° 0 mm 4 mps 752 mmHg 8%
16:00 +43°C° 0 mm 4 mps 752 mmHg 10%
17:00 +41°C° 0 mm 4 mps 751 mmHg 12%
18:00 +38°C° 0 mm 4 mps 751 mmHg 14%
19:00 +37°C° 0 mm 3 mps 752 mmHg 16%
20:00 +36°C° 0 mm 2 mps 752 mmHg 17%
21:00 +35°C° 0 mm 2 mps 752 mmHg 19%
22:00 +35°C° 0 mm 2 mps 752 mmHg 18%
23:00 +35°C° 0 mm 3 mps 751 mmHg 17%

Day after tomorrow, 13 May, Thursday

Time Temperature Precipitation Wind Pressure Humidity
00:00 +35°C° 0 mm 3 mps 751 mmHg 16%
01:00 +34°C° 0 mm 3 mps 751 mmHg 16%
02:00 +34°C° 0 mm 3 mps 751 mmHg 16%
03:00 +34°C° 0 mm 3 mps 751 mmHg 15%
04:00 +34°C° 0 mm 3 mps 752 mmHg 15%
05:00 +34°C° 0 mm 3 mps 752 mmHg 15%
06:00 +35°C° 0 mm 4 mps 753 mmHg 15%
07:00 +37°C° 0 mm 3 mps 753 mmHg 13%
08:00 +40°C° 0 mm 2 mps 753 mmHg 11%
09:00 +43°C° 0 mm 2 mps 753 mmHg 9%
10:00 +45°C° 0 mm 2 mps 753 mmHg 8%
11:00 +46°C° 0 mm 3 mps 752 mmHg 8%
12:00 +48°C° 0 mm 4 mps 752 mmHg 7%
13:00 +47°C° 0 mm 4 mps 752 mmHg 8%
14:00 +47°C° 0 mm 5 mps 751 mmHg 8%
15:00 +46°C° 0 mm 5 mps 751 mmHg 9%
16:00 +45°C° 0 mm 5 mps 751 mmHg 12%
17:00 +42°C° 0 mm 4 mps 751 mmHg 14%
18:00 +39°C° 0 mm 3 mps 751 mmHg 17%
19:00 +38°C° 0 mm 3 mps 751 mmHg 16%
20:00 +38°C° 0 mm 3 mps 751 mmHg 15%
21:00 +38°C° 0 mm 3 mps 751 mmHg 15%
22:00 +37°C° 0 mm 3 mps 751 mmHg 15%
23:00 +36°C° 0 mm 4 mps 751 mmHg 16%

14 May, Friday

Time Temperature Precipitation Wind Pressure Humidity
00:00 +35°C° 0 mm 4 mps 750 mmHg 17%
01:00 +35°C° 0 mm 4 mps 750 mmHg 16%
02:00 +35°C° 0 mm 4 mps 750 mmHg 16%
03:00 +35°C° 0 mm 3 mps 750 mmHg 15%
04:00 +35°C° 0 mm 3 mps 751 mmHg 15%
05:00 +35°C° 0 mm 2 mps 751 mmHg 15%
06:00 +34°C° 0 mm 1 mps 752 mmHg 15%
07:00 +37°C° 0 mm 2 mps 752 mmHg 13%
08:00 +40°C° 0 mm 2 mps 752 mmHg 11%
09:00 +42°C° 0 mm 2 mps 752 mmHg 9%
10:00 +45°C° 0 mm 2 mps 752 mmHg 8%
11:00 +46°C° 0 mm 2 mps 752 mmHg 7%
12:00 +47°C° 0 mm 2 mps 751 mmHg 7%
13:00 +48°C° 0 mm 4 mps 751 mmHg 7%
14:00 +48°C° 0 mm 5 mps 750 mmHg 8%
15:00 +47°C° 0 mm 6 mps 750 mmHg 8%
16:00 +45°C° 0 mm 5 mps 749 mmHg 12%
17:00 +42°C° 0 mm 4 mps 749 mmHg 15%
18:00 +39°C° 0 mm 3 mps 749 mmHg 18%
19:00 +38°C° 0 mm 3 mps 750 mmHg 19%
20:00 +37°C° 0 mm 3 mps 750 mmHg 20%
21:00 +35°C° 0 mm 2 mps 750 mmHg 21%
22:00 +35°C° 0 mm 3 mps 750 mmHg 20%
23:00 +35°C° 0 mm 3 mps 750 mmHg 20%

15 May, Saturday

Time Temperature Precipitation Wind Pressure Humidity
00:00 +35°C° 0 mm 4 mps 750 mmHg 19%
01:00 +34°C° 0 mm 4 mps 750 mmHg 19%
02:00 +34°C° 0 mm 3 mps 750 mmHg 18%
03:00 +33°C° 0 mm 3 mps 750 mmHg 18%
04:00 +34°C° 0 mm 3 mps 750 mmHg 18%
05:00 +34°C° 0 mm 2 mps 750 mmHg 17%
06:00 +34°C° 0 mm 2 mps 750 mmHg 17%
07:00 +37°C° 0 mm 2 mps 750 mmHg 14%
08:00 +40°C° 0 mm 2 mps 751 mmHg 12%
09:00 +43°C° 0 mm 3 mps 751 mmHg 9%
10:00 +44°C° 0 mm 3 mps 751 mmHg 8%
11:00 +47°C° 0 mm 4 mps 750 mmHg 7%
12:00 +48°C° 0 mm 4 mps 750 mmHg 7%
13:00 +48°C° 0 mm 4 mps 750 mmHg 7%
14:00 +47°C° 0 mm 5 mps 749 mmHg 7%
15:00 +47°C° 0 mm 5 mps 749 mmHg 7%
16:00 +44°C° 0 mm 4 mps 749 mmHg 10%
17:00 +42°C° 0 mm 3 mps 749 mmHg 12%
18:00 +39°C° 0 mm 3 mps 749 mmHg 15%
19:00 +38°C° 0 mm 2 mps 750 mmHg 15%
20:00 +37°C° 0 mm 2 mps 750 mmHg 14%
21:00 +36°C° 0 mm 2 mps 750 mmHg 14%
22:00 +36°C° 0 mm 3 mps 750 mmHg 13%
23:00 +36°C° 0 mm 4 mps 750 mmHg 12%

16 May, Sunday

Time Temperature Precipitation Wind Pressure Humidity
00:00 +36°C° 0 mm 5 mps 750 mmHg 11%
01:00 +35°C° 0 mm 5 mps 750 mmHg 10%
02:00 +34°C° 0 mm 5 mps 750 mmHg 10%
03:00 +33°C° 0 mm 5 mps 750 mmHg 10%
04:00 +33°C° 0 mm 4 mps 751 mmHg 9%
05:00 +33°C° 0 mm 4 mps 751 mmHg 9%
06:00 +33°C° 0 mm 3 mps 751 mmHg 8%
07:00 +36°C° 0 mm 3 mps 751 mmHg 7%
08:00 +38°C° 0 mm 4 mps 751 mmHg 6%
09:00 +42°C° 0 mm 4 mps 752 mmHg 5%
10:00 +43°C° 0 mm 4 mps 751 mmHg 5%
11:00 +44°C° 0 mm 3 mps 751 mmHg 4%
12:00 +45°C° 0 mm 3 mps 751 mmHg 4%
13:00 +45°C° 0 mm 4 mps 751 mmHg 5%
14:00 +45°C° 0 mm 4 mps 750 mmHg 5%
15:00 +46°C° 0 mm 5 mps 750 mmHg 5%
16:00 +43°C° 0 mm 4 mps 750 mmHg 7%
17:00 +41°C° 0 mm 4 mps 750 mmHg 9%
18:00 +39°C° 0 mm 3 mps 750 mmHg 11%
19:00 +37°C° 0 mm 3 mps 750 mmHg 11%
20:00 +36°C° 0 mm 3 mps 751 mmHg 11%
21:00 +35°C° 0 mm 3 mps 751 mmHg 11%
22:00 +35°C° 0 mm 3 mps 751 mmHg 11%
23:00 +34°C° 0 mm 3 mps 751 mmHg 10%
Show more

We Need Your Consent

Meteoprog and our Service Providers may store and access personal data such as cookies, device identifiers or other similar technologies on your device and process such data to personalise content and ads, as well as provide social media features and to analyse the traffic.

  • Store and/or access information on your device

    Cookies, device identifiers or other information can be stored or accessed on your device for the purposes indicated above.

  • Personalised ads and content, ad and content measurement, audience insights, and products development

    Ads and content can be personalised based on a profile. More data can be added to better personalise ads and content. Ad and content performance can be measured. Insights about the audience who saw the ads and content can be derived. Such data can be used to develop or improve user’s experience, systems and software.

By clicking ‘I Agree’ you will allow the use of indicated cookies, device identifiers, web beacons or other similar technologies. Your settings can be changed in the browser on your device.

For certain purposes, legitimate interests may be relied on, rather than consent. You can read more about this in our Privacy and Cookie Policy.